E24YPM-1 Weather Reports


Display with metric or nautical units.
time (UTC)temp
F
wind
direction
speed
MPH
gust
MPH
rain 1hr
in
rain 24hr
in
rain mn
in
humidity
%
barometer
mb
20260502201938 86 0 0.0 0.0 0.00 0.00 0.00 28 1003.0
20260502200433 86 0 0.0 0.0 0.00 0.00 0.00 29 1002.0
20260502194907 87 0 0.0 0.0 0.00 0.00 0.00 28 1002.0
20260502193344 87 0 0.0 0.0 0.00 0.00 0.00 28 1003.0
20260502191859 87 0 0.0 0.0 0.00 0.00 0.00 28 1003.0
20260502190313 87 0 0.0 0.0 0.00 0.00 0.00 28 1003.0
20260502184811 88 0 0.0 0.0 0.00 0.00 0.00 28 1003.0
20260502183248 87 0 0.0 0.0 0.00 0.00 0.00 28 1003.0
20260502181736 88 0 0.0 0.0 0.00 0.00 0.00 28 1003.0
20260502180222 88 0 0.0 0.0 0.00 0.00 0.00 28 1003.0
20260502170128 89 0 0.0 0.0 0.00 0.00 0.00 28 1003.0
20260502163058 89 0 0.0 0.0 0.00 0.00 0.00 29 1004.0
20260502161545 88 0 0.0 0.0 0.00 0.00 0.00 29 1004.0
20260502151448 88 0 0.0 0.0 0.00 0.00 0.00 32 1003.0
20260502122816 96 0 0.0 0.0 0.00 0.00 0.00 48 1000.0
20260502121144 96 0 0.0 0.0 0.00 0.00 0.00 48 1000.0
20260502115634 96 0 0.0 0.0 0.00 0.00 0.00 48 1000.0
20260502114112 96 0 0.0 0.0 0.00 0.00 0.00 47 999.0
20260502112559 97 0 0.0 0.0 0.00 0.00 0.00 47 999.0
20260502111047 97 0 0.0 0.0 0.00 0.00 0.00 47 999.0
20260502105534 98 0 0.0 0.0 0.00 0.00 0.00 45 999.0
20260502104021 99 0 0.0 0.0 0.00 0.00 0.00 42 999.0
20260502102505 99 0 0.0 0.0 0.00 0.00 0.00 42 999.0
20260502100948 98 0 0.0 0.0 0.00 0.00 0.00 43 999.0
20260502090853 95 0 0.0 0.0 0.00 0.00 0.00 48 999.0
20260502070535 94 0 0.0 0.0 0.00 0.00 0.00 51 1002.0
20260502063659 94 0 0.0 0.0 0.00 0.00 0.00 52 1002.0
20260502062133 94 0 0.0 0.0 0.00 0.00 0.00 52 1003.0
20260502060611 94 0 0.0 0.0 0.00 0.00 0.00 52 1003.0
20260502055055 94 0 0.0 0.0 0.00 0.00 0.00 53 1003.0
20260502053612 94 0 0.0 0.0 0.00 0.00 0.00 53 1004.0
20260502052019 93 0 0.0 0.0 0.00 0.00 0.00 53 1004.0
20260502050503 93 0 0.0 0.0 0.00 0.00 0.00 53 1004.0
20260502044948 93 0 0.0 0.0 0.00 0.00 0.00 54 1005.0
20260502043434 93 0 0.0 0.0 0.00 0.00 0.00 54 1005.0
20260502041916 93 0 0.0 0.0 0.00 0.00 0.00 54 1005.0
20260502040418 93 0 0.0 0.0 0.00 0.00 0.00 55 1005.0
20260502034844 93 0 0.0 0.0 0.00 0.00 0.00 55 1005.0
20260502033328 93 0 0.0 0.0 0.00 0.00 0.00 56 1005.0
20260502031813 93 0 0.0 0.0 0.00 0.00 0.00 56 1005.0
20260502030257 93 0 0.0 0.0 0.00 0.00 0.00 57 1005.0
20260502024747 93 0 0.0 0.0 0.00 0.00 0.00 57 1005.0
20260502023232 93 0 0.0 0.0 0.00 0.00 0.00 58 1005.0
20260502021718 93 0 0.0 0.0 0.00 0.00 0.00 57 1005.0
20260502020211 92 0 0.0 0.0 0.00 0.00 0.00 58 1005.0
20260502014653 93 0 0.0 0.0 0.00 0.00 0.00 58 1005.0
20260502013141 92 0 0.0 0.0 0.00 0.00 0.00 59 1005.0
20260502011627 93 0 0.0 0.0 0.00 0.00 0.00 56 1005.0
20260502010114 93 0 0.0 0.0 0.00 0.00 0.00 52 1005.0
20260502004601 94 0 0.0 0.0 0.00 0.00 0.00 53 1005.0
20260502003050 92 0 0.0 0.0 0.00 0.00 0.00 50 1005.0
20260502001531 92 0 0.0 0.0 0.00 0.00 0.00 50 1005.0
20260502000016 92 0 0.0 0.0 0.00 0.00 0.00 50 1005.0
20260501234454 92 0 0.0 0.0 0.00 0.00 0.00 49 1004.0
20260501232940 92 0 0.0 0.0 0.00 0.00 0.00 49 1004.0
20260501231427 92 0 0.0 0.0 0.00 0.00 0.00 48 1004.0
20260501225915 91 0 0.0 0.0 0.00 0.00 0.00 48 1004.0
20260501224359 91 0 0.0 0.0 0.00 0.00 0.00 47 1004.0
20260501222845 91 0 0.0 0.0 0.00 0.00 0.00 46 1004.0
20260501221333 91 0 0.0 0.0 0.00 0.00 0.00 45 1003.0
20260501220123 91 0 0.0 0.0 0.00 0.00 0.00 43 1003.0
20260501214645 90 0 0.0 0.0 0.00 0.00 0.00 42 1003.0
20260501213103 90 0 0.0 0.0 0.00 0.00 0.00 40 1003.0
20260501211538 89 0 0.0 0.0 0.00 0.00 0.00 37 1003.0
20260501205719 88 0 0.0 0.0 0.00 0.00 0.00 32 1003.0
20260501204206 87 0 0.0 0.0 0.00 0.00 0.00 29 1003.0
20260501202628 86 0 0.0 0.0 0.00 0.00 0.00 31 1003.0